[[{"header":{"parameterUnit":"m.s-1","parameterCategory":1,"la1":30.2991,"la2":30.254,"lo1":-89.0895,"lo2":-89.0444,"dy":0.0017,"dx":0.0017,"nx":28,"ny":28,"refTime":"2025-02-08T03:00:00:Z","depth":0,"parameterNumber":2,"parameterNumberName":"U-component_of_WINDS"},"data":[0,0,0,0,0,0,0,0,0,0,0,0,0,0,0,0,0,0,0,0,0,0,0,0,0,0,0,0,0,0,0,0,0,0,0,0,0,0,0,0,0,0,0,0,0,0,0,0,0,0,0,0,0,0,0,0,0,0,-1.3385,-1.3387,0,-1.3505,-1.3506,-1.3507,-1.3548,-1.3548,-1.3548,-1.3547,-1.367,-1.3674,-1.3678,0,0,0,0,0,0,0,0,0,0,0,0,0,-1.3193,-1.3196,-1.3385,-1.3387,-1.3388,-1.3504,-1.3506,-1.3508,-1.3549,-1.3548,-1.3547,-1.3547,-1.3669,-1.3673,-1.3678,0,0,0,0,0,0,0,0,0,0,0,0,0,-1.329,-1.3197,-1.3385,-1.3423,-1.3427,-1.3504,-1.3506,-1.3508,-1.3549,-1.3548,-1.3547,-1.3547,-1.3668,-1.3673,-1.3679,-1.3727,0,0,-1.3696,-1.3698,0,0,0,0,0,0,0,0,-1.3285,-1.3298,-1.3416,-1.342,-1.3425,-1.3511,-1.3483,-1.3582,-1.3549,-1.3503,-1.3547,-1.3546,-1.3618,-1.3627,-1.3651,-1.3733,-1.3738,-1.3696,-1.3699,-1.3702,-1.3703,0,0,0,0,0,0,0,-1.3278,-1.3293,-1.3433,-1.3417,-1.3423,-1.3433,-1.3447,-1.3502,-1.3563,-1.3507,-1.351,-1.3523,-1.362,-1.3646,-1.3655,-1.374,-1.3696,-1.3701,-1.3704,-1.3706,-1.3865,-1.3866,0,0,0,0,0,0,-1.3265,-1.3287,-1.3429,-1.3436,-1.3352,-1.3437,-1.3452,-1.3484,-1.3562,-1.3573,-1.3524,-1.3525,-1.3637,-1.3648,-1.3659,-1.372,-1.3702,-1.3707,-1.371,-1.3864,-1.3865,-1.3866,0,0,0,0,0,0,-1.3261,-1.3277,-1.3424,-1.3362,-1.3382,-1.3442,-1.3477,-1.3487,-1.3513,-1.3575,-1.3586,-1.3539,-1.3637,-1.3651,-1.3709,-1.3725,-1.371,-1.3715,-1.3863,-1.3864,-1.3865,-1.3842,0,0,0,0,0,0,-1.3255,-1.3275,-1.3295,-1.3362,-1.3385,-1.3472,-1.3478,-1.349,-1.3522,-1.3524,-1.3592,-1.3603,-1.3637,-1.3701,-1.3715,-1.3732,-1.3719,-1.3862,-1.3864,-1.3865,-1.3841,-1.3842,-1.3843,0,0,0,0,0,-1.3248,-1.3284,-1.3296,-1.3312,-1.341,-1.3473,-1.3486,-1.3524,-1.3523,-1.3543,-1.3583,-1.3601,-1.3721,-1.3706,-1.3723,-1.3742,-1.3861,-1.3863,-1.3865,-1.3841,-1.3842,-1.3843,0,0,0,0,0,0,-1.3218,-1.3294,-1.3307,-1.3366,-1.3413,-1.348,-1.3506,-1.3524,-1.3573,-1.3573,-1.3619,-1.3634,-1.3688,-1.3721,-1.3704,-1.3792,-1.3792,-1.3797,-1.3768,-1.3769,-1.377,-1.3761,-1.3724,0,0,0,0,0,-1.3218,-1.3262,-1.3326,-1.3372,-1.3395,-1.3446,-1.3475,-1.35,-1.355,-1.357,-1.3615,-1.3663,-1.3711,-1.3742,-1.379,-1.3846,-1.3861,-1.3867,-1.3868,-1.3868,-1.3872,-1.3902,-1.3905,-1.3872,-1.3872,-1.3872,0,0,-1.3219,-1.3266,-1.3291,-1.3367,-1.3406,-1.3451,-1.3462,-1.351,-1.3543,-1.3578,-1.3635,-1.3669,-1.3725,-1.3782,-1.3809,-1.3811,-1.3884,-1.387,-1.387,-1.3874,-1.3904,-1.3908,-1.391,-1.3874,-1.3873,-1.3873,0,0,-1.3243,-1.3283,-1.3325,-1.3363,-1.3421,-1.3455,-1.3465,-1.3529,-1.3552,-1.361,-1.3636,-1.3677,-1.376,-1.3798,-1.3829,-1.3865,-1.3883,-1.3879,-1.3882,-1.3911,-1.3914,-1.3916,-1.3928,-1.3932,-1.3883,-1.3883,-1.3883,0,-1.3236,-1.3305,-1.3344,-1.3389,-1.3421,-1.3454,-1.3496,-1.3531,-1.3603,-1.3624,-1.3625,-1.3728,-1.3768,-1.3833,-1.3842,-1.3866,-1.3878,-1.3872,-1.391,-1.3913,-1.3916,-1.3928,-1.3932,-1.3882,-1.3882,-1.3882,-1.3882,0,-1.3293,-1.334,-1.3367,-1.3433,-1.3468,-1.3512,-1.3558,-1.3588,-1.361,-1.3643,-1.3701,-1.375,-1.3808,-1.3826,-1.3848,-1.3893,-1.3893,-1.3901,-1.3902,-1.3918,-1.3929,-1.3934,-1.3881,-1.3881,-1.3881,-1.3882,0,0,-1.3303,-1.3389,-1.3398,-1.3428,-1.3493,-1.353,-1.3575,-1.363,-1.3655,-1.3703,-1.374,-1.3809,-1.3816,-1.3851,-1.3878,-1.3903,-1.3927,-1.3909,-1.3911,-1.391,-1.3978,-1.3971,-1.3976,-1.3939,-1.394,-1.3941,-1.3973,0,-1.3334,-1.3415,-1.345,-1.3514,-1.3557,-1.3587,-1.3626,-1.367,-1.3702,-1.3743,-1.3778,-1.3825,-1.3832,-1.3853,-1.388,-1.3918,-1.3941,-1.3917,-1.3974,-1.3976,-1.3958,-1.3982,-1.3975,-1.4003,-1.3978,-1.3979,-1.398,0,-1.3383,-1.3429,-1.3496,-1.3555,-1.3574,-1.3608,-1.3661,-1.37,-1.375,-1.3771,-1.3808,-1.3834,-1.3881,-1.3878,-1.3943,-1.3926,-1.3951,-1.3973,-1.3976,-1.3982,-1.3978,-1.3988,-1.4013,-1.4017,-1.3988,-1.3987,-1.3986,0,-1.3381,-1.346,-1.351,-1.3535,-1.3605,-1.3628,-1.3658,-1.3708,-1.3738,-1.3784,-1.3804,-1.3856,-1.3884,-1.3923,-1.3961,-1.3956,-1.4022,-1.4023,-1.404,-1.4039,-1.4053,-1.4051,-1.4081,-1.407,-1.407,-1.407,-1.407,0,-1.3412,-1.3452,-1.351,-1.3541,-1.3586,-1.3627,-1.367,-1.3703,-1.3746,-1.3783,-1.3813,-1.3848,-1.3896,-1.3937,-1.3967,-1.4015,-1.4028,-1.4046,-1.4054,-1.4043,-1.4041,-1.4061,-1.4059,-1.4071,-1.4071,-1.4071,-1.407,0,-1.3418,-1.3459,-1.3515,-1.3576,-1.3592,-1.3623,-1.3675,-1.3706,-1.3738,-1.3785,-1.3798,-1.385,-1.3899,-1.394,-1.4005,-1.4026,-1.4075,-1.4085,-1.4058,-1.4062,-1.4076,-1.4074,-1.4119,-1.4127,-1.4111,-1.4111,-1.4111,0,-1.3435,-1.3466,-1.353,-1.3556,-1.3586,-1.3629,-1.3659,-1.37,-1.3731,-1.3789,-1.3813,-1.3864,-1.3907,-1.3983,-1.4026,-1.4076,-1.4086,-1.4099,-1.4094,-1.4082,-1.4085,-1.4083,-1.4085,-1.4099,-1.4099,-1.4099,-1.4099,0,-1.346,-1.3478,-1.3521,-1.357,-1.3606,-1.3647,-1.3689,-1.371,-1.3758,-1.3791,-1.3841,-1.3874,-1.3939,-1.3989,-1.4043,-1.4074,-1.4094,-1.41,-1.4106,-1.4096,-1.4078,-1.4087,-1.4058,-1.4098,-1.4098,-1.4098,-1.4098,-1.4098,-1.3472,-1.35,-1.3548,-1.3595,-1.363,-1.3668,-1.37,-1.3735,-1.3778,-1.3833,-1.3855,-1.3905,-1.3954,-1.4028,-1.4059,-1.4099,-1.4102,-1.4111,-1.4114,-1.4115,-1.4113,-1.4072,-1.4109,-1.4109,-1.4109,-1.4109,-1.4109,0,-1.3497,-1.353,-1.3572,-1.3629,-1.3665,-1.368,-1.3727,-1.3756,-1.38,-1.3843,-1.3884,-1.394,-1.3988,-1.4034,-1.4085,-1.4108,-1.4118,-1.4119,-1.4118,-1.4125,-1.4108,-1.4097,-1.411,-1.411,-1.411,-1.411,-1.411,-1.411,-1.3515,-1.3563,-1.3586,-1.3652,-1.3685,-1.3734,-1.3759,-1.3794,-1.3828,-1.3889,-1.3929,-1.3959,-1.4003,-1.4056,-1.4101,-1.4113,-1.413,-1.4128,-1.4143,-1.4127,-1.4126,-1.4125,-1.4115,-1.4132,-1.4132,-1.4156,-1.4157,-1.4157]},{"header":{"parameterUnit":"m.s-1","parameterCategory":1,"la1":30.2991,"la2":30.254,"lo1":-89.0895,"lo2":-89.0444,"dy":0.0017,"dx":0.0017,"nx":28,"ny":28,"refTime":"2025-02-08T03:00:00:Z","depth":0,"parameterNumber":3,"parameterNumberName":"V-component_of_WINDS"},"data":[0,0,0,0,0,0,0,0,0,0,0,0,0,0,0,0,0,0,0,0,0,0,0,0,0,0,0,0,0,0,0,0,0,0,0,0,0,0,0,0,0,0,0,0,0,0,0,0,0,0,0,0,0,0,0,0,0,0,2.3193,2.3197,0,2.357,2.3574,2.3578,2.3695,2.3693,2.3692,2.369,2.4086,2.4098,2.411,0,0,0,0,0,0,0,0,0,0,0,0,0,2.2587,2.2598,2.3193,2.3197,2.3202,2.3569,2.3574,2.3579,2.3696,2.3693,2.3691,2.3689,2.4082,2.4096,2.4111,0,0,0,0,0,0,0,0,0,0,0,0,0,2.2896,2.2601,2.3192,2.3304,2.3318,2.3568,2.3574,2.3581,2.3696,2.3693,2.369,2.3688,2.4077,2.4095,2.4113,2.4282,0,0,2.4169,2.4177,0,0,0,0,0,0,0,0,2.2878,2.2918,2.3283,2.3297,2.3313,2.3582,2.3506,2.3816,2.3697,2.3553,2.369,2.3687,2.3921,2.3952,2.4029,2.43,2.4317,2.4171,2.4182,2.419,2.4195,0,0,0,0,0,0,0,2.2857,2.2903,2.3342,2.3288,2.3306,2.334,2.3381,2.3565,2.3748,2.3565,2.3574,2.3617,2.3929,2.4011,2.4039,2.4323,2.417,2.4187,2.4198,2.4205,2.476,2.4763,0,0,0,0,0,0,2.2815,2.2884,2.333,2.3353,2.3084,2.3353,2.3399,2.3499,2.3746,2.3781,2.3619,2.3621,2.3981,2.4018,2.4054,2.4273,2.419,2.4207,2.4217,2.4756,2.476,2.4764,0,0,0,0,0,0,2.2801,2.2853,2.3315,2.3122,2.3183,2.3366,2.3478,2.3508,2.359,2.3787,2.3821,2.3669,2.398,2.4028,2.4225,2.4288,2.4215,2.4232,2.4752,2.4757,2.4762,2.4709,0,0,0,0,0,0,2.2783,2.2848,2.291,2.3122,2.3192,2.3476,2.3482,2.3517,2.362,2.3627,2.3843,2.3876,2.3982,2.4197,2.4243,2.4312,2.4246,2.4747,2.4754,2.4761,2.4706,2.4712,2.4717,0,0,0,0,0,2.2761,2.2881,2.2913,2.2966,2.3274,2.3479,2.352,2.3637,2.3624,2.3692,2.382,2.3869,2.4273,2.4216,2.427,2.4345,2.4743,2.4752,2.476,2.4703,2.4711,2.4717,0,0,0,0,0,0,2.2675,2.291,2.2948,2.3139,2.3288,2.3498,2.3586,2.364,2.3797,2.3797,2.3938,2.3986,2.4174,2.4279,2.4212,2.4525,2.4511,2.453,2.4449,2.4458,2.4463,2.4436,2.4262,0,0,0,0,0,2.2677,2.282,2.302,2.3169,2.3242,2.3401,2.3494,2.3571,2.3733,2.3797,2.3939,2.4096,2.426,2.4364,2.4525,2.4721,2.4773,2.4799,2.4805,2.4808,2.4825,2.4943,2.4959,2.4792,2.4792,2.4791,0,0,2.2685,2.2831,2.2913,2.3156,2.328,2.343,2.3453,2.3609,2.3724,2.3822,2.4017,2.4127,2.4313,2.4511,2.4606,2.4605,2.4882,2.4819,2.482,2.4835,2.4953,2.4969,2.4982,2.4797,2.4796,2.4795,0,0,2.2776,2.2899,2.304,2.3164,2.3351,2.3457,2.349,2.3694,2.377,2.3967,2.4046,2.4186,2.4462,2.4593,2.4696,2.4841,2.4896,2.489,2.492,2.5033,2.5047,2.5059,2.5116,2.5135,2.4904,2.4904,2.4904,0,2.2764,2.2988,2.3106,2.326,2.3367,2.346,2.3607,2.3723,2.3954,2.4029,2.4022,2.4375,2.4506,2.474,2.4775,2.4853,2.4901,2.4867,2.5034,2.5048,2.5062,2.5118,2.5139,2.4903,2.4903,2.4903,2.4903,0,2.2966,2.3122,2.3213,2.3432,2.355,2.3699,2.3844,2.395,2.4017,2.4125,2.4329,2.449,2.4687,2.4748,2.4815,2.4993,2.4987,2.5005,2.4995,2.5074,2.513,2.5152,2.4901,2.4901,2.4902,2.4902,0,0,2.3014,2.3297,2.333,2.3433,2.3648,2.3773,2.3929,2.4119,2.421,2.4367,2.4506,2.4739,2.4759,2.4875,2.4959,2.5058,2.517,2.5066,2.5073,2.5084,2.5383,2.5371,2.5393,2.5206,2.521,2.5214,2.5369,0,2.3136,2.3415,2.3528,2.3756,2.3905,2.3998,2.4135,2.4285,2.4391,2.4536,2.4654,2.4819,2.483,2.4902,2.5003,2.5134,2.5233,2.5124,2.5342,2.5348,2.5296,2.5422,2.5408,2.5547,2.5391,2.5395,2.5398,0,2.3316,2.3474,2.3716,2.3918,2.3985,2.4105,2.4292,2.4428,2.4602,2.4673,2.4804,2.4883,2.5056,2.5032,2.5276,2.52,2.5296,2.5374,2.5383,2.5411,2.538,2.5458,2.5593,2.5615,2.5432,2.5429,2.5427,0,2.3333,2.3606,2.3788,2.3872,2.411,2.4194,2.4298,2.4469,2.4578,2.4743,2.4816,2.4999,2.51,2.5242,2.5371,2.534,2.5606,2.559,2.5674,2.5671,2.5729,2.5724,2.5886,2.5782,2.5782,2.5782,2.5781,0,2.3461,2.3607,2.3799,2.3911,2.408,2.421,2.4375,2.4486,2.4638,2.4777,2.4869,2.4999,2.5158,2.5311,2.5413,2.5603,2.5647,2.5713,2.5739,2.5708,2.57,2.5775,2.5771,2.5787,2.5786,2.5785,2.5784,0,2.3508,2.3642,2.3847,2.4056,2.4113,2.4228,2.441,2.4526,2.4636,2.4812,2.4861,2.5036,2.522,2.5361,2.5601,2.567,2.5874,2.5899,2.5814,2.5828,2.5906,2.5899,2.6126,2.6165,2.6029,2.603,2.6031,0,2.3583,2.3697,2.3919,2.4018,2.412,2.4278,2.439,2.4524,2.4638,2.4847,2.4939,2.5129,2.5289,2.558,2.5731,2.5917,2.5951,2.6017,2.5979,2.5946,2.5959,2.5952,2.5967,2.6023,2.6024,2.6025,2.6025,0,2.3703,2.3764,2.392,2.4101,2.4231,2.438,2.4532,2.4609,2.4772,2.4896,2.5084,2.5207,2.5453,2.5643,2.5844,2.5957,2.6021,2.6035,2.6066,2.6037,2.5985,2.602,2.5832,2.6031,2.603,2.603,2.6029,2.6029,2.3771,2.3879,2.4052,2.4225,2.4353,2.4493,2.4614,2.4739,2.4897,2.5106,2.5176,2.5372,2.555,2.5826,2.5941,2.61,2.6102,2.6144,2.6156,2.6165,2.6165,2.5955,2.6136,2.6136,2.6136,2.6136,2.6136,0,2.39,2.4016,2.4173,2.4382,2.452,2.4563,2.4735,2.4849,2.5019,2.5177,2.5332,2.5552,2.5737,2.5903,2.6098,2.6194,2.6229,2.6241,2.6238,2.6264,2.6149,2.6106,2.621,2.621,2.621,2.621,2.621,2.621,2.3983,2.4171,2.4253,2.4507,2.4625,2.4815,2.491,2.5043,2.517,2.541,2.5564,2.567,2.5835,2.6042,2.6217,2.6261,2.6331,2.6337,2.639,2.628,2.6271,2.6263,2.6223,2.635,2.635,2.6493,2.6494,2.6495]}]]